User: anonymous   Login
Location: Ostrava
(49.8330°N, 18.2830°E)
Time: 05:41:54
(UTC+01:00)
Language:

Explorer 7 - Orbit

View from above orbital plane
View from above orbital plane
View from above satellite
View from above satellite

Ground track
Ground track

The orbit data is extracted from the following two-line orbital elements,

1 00022U 59009A   15061.18147569  .00003834  00000-0  33030-3 0  9991
2 00022 050.2835 162.2689 0148905 081.2643 280.5135 14.91454412936124
Epoch (UTC): 02 March 2015 04:21:19
Eccentricity: 0.0148905
inclination: 50.2835°
perigee height: 489 km
apogee height: 697 km
right ascension of ascending node: 162.2689°
argument of perigee: 81.2643°
revolutions per day: 14.91454412
mean anomaly at epoch: 280.5135°
orbit number at epoch: 93612

The dashed part of the orbit path shows where the satellite is in the earth's shadow,  

DLR